Back to catalog

Sitro-AIS-65

AliveCommunicationsSSO
NORAD 67266·PAYLOAD·🇷🇺 Russia

Launched Dec 28, 2025 from Vostochny Cosmodrome

Loading…

Next Passes (next 24 hours)

TLE

FreshSource: Space-Track

Epoch: Sep 13, 2026, 22:39 UTC

1 67266U 25313U   26256.94396789  .00007870  00000-0  31941-3 0  9990
2 67266  97.3889 330.4718 0014997  55.2477 305.0170 15.24769867 39473

Track Sitro-AIS-65 in real time with AllMySat

Download on the App Store